Change the Weather History Date:

Friday, May 3, 2013

  Actual Average (KGVL) Record (KGVL)
Temperature  
Mean Temperature 60 °F 65 °F  
Max Temperature 62 °F 75 °F 90 °F (1959)
Min Temperature 57 °F 54 °F 37 °F (1939)
Degree Days  
Heating Degree Days 6    
Cooling Degree Days 0 2  
Month to date cooling degree days 6  
Year to date cooling degree days 45  
Growing Degree Days 10 (Base 50)    
Moisture  
Dew Point 51 °F    
Average Humidity 72    
Maximum Humidity 88    
Minimum Humidity 52    
Precipitation  
Precipitation 0.00 in 0.13 in 2.85 in (1964)
Month to date precipitation 0.37  
Year to date precipitation 19.25  
Sea Level Pressure  
Sea Level Pressure 30.06 in    
Wind  
Wind Speed 10 mph (East)    
Max Wind Speed 16 mph    
Max Gust Speed 32 mph    
Visibility 9 miles    
Events Rain    
T = Trace of Precipitation, MM = Missing Value Source: NWS Daily Summary

Daily Weather History Graph

Daily Weather History Graph

Search for Another Location

Airport or City:

Trip Planner

Search our weather history database for the weather conditions in past years. The results will help you decide how hot, cold, wet, or windy it might be!

Date:

Astronomy

May. 03, 2013 Rise Set
Actual Time 6:45 AM EDT 8:23 PM EDT
Civil Twilight 6:18 AM EDT 8:50 PM EDT
Nautical Twilight 5:46 AM EDT 9:23 PM EDT
Astronomical Twilight 5:12 AM EDT 9:57 PM EDT
Moon 2:53 AM EDT (5/3) 2:32 PM EDT (5/3)
Length of Visible Light 14h 31m
Length of Day
13h 38m
Last Quarter, 37% of the Moon is Illuminated
May 3
Last Quarter
May 9
New
May 18
First Quarter
May 25
Full
May 31
Last Quarter

Hourly Weather History & Observations

Time (EDT) Temp. Dew Point Humidity Pressure Visibility Wind Dir Wind Speed Gust Speed Precip Events Conditions
12:15 AM 60.8 °F 50.0 °F 68% 30.16 in 10.0 mi East 5.8 mph - N/A   Overcast
12:35 AM 60.8 °F 50.0 °F 68% 30.15 in 10.0 mi ENE 10.4 mph 17.3 mph N/A   Overcast
12:55 AM 60.8 °F 50.0 °F 68% 30.14 in 10.0 mi East 8.1 mph 16.1 mph N/A   Overcast
1:15 AM 60.8 °F 51.8 °F 72% 30.14 in 10.0 mi ENE 5.8 mph - N/A   Overcast
1:55 AM 60.8 °F 50.0 °F 68% 30.12 in 10.0 mi ENE 10.4 mph 18.4 mph N/A   Overcast
2:15 AM 60.8 °F 50.0 °F 68% 30.12 in 10.0 mi East 13.8 mph 19.6 mph N/A   Overcast
2:35 AM 60.8 °F 51.8 °F 72% 30.11 in 10.0 mi East 5.8 mph - N/A   Overcast
2:55 AM 59.0 °F 51.8 °F 77% 30.11 in 7.0 mi East 10.4 mph 20.7 mph N/A   Overcast
3:15 AM 59.0 °F 53.6 °F 82% 30.10 in 5.0 mi East 8.1 mph - N/A Rain Rain
3:35 AM 59.0 °F 53.6 °F 82% 30.09 in 10.0 mi East 9.2 mph - N/A   Overcast
3:55 AM 59.0 °F 51.8 °F 77% 30.08 in 10.0 mi ENE 9.2 mph 16.1 mph N/A   Overcast
4:15 AM 59.0 °F 51.8 °F 77% 30.08 in 10.0 mi East 12.7 mph 21.9 mph N/A   Overcast
4:35 AM 59.0 °F 51.8 °F 77% 30.08 in 10.0 mi East 10.4 mph 19.6 mph N/A   Overcast
4:55 AM 59.0 °F 51.8 °F 77% 30.08 in 10.0 mi East 10.4 mph 19.6 mph N/A   Overcast
5:15 AM 59.0 °F 53.6 °F 82% 30.08 in 5.0 mi ENE 6.9 mph 18.4 mph N/A   Haze
5:35 AM 57.2 °F 53.6 °F 88% 30.08 in 5.0 mi East 8.1 mph - N/A   Overcast
5:55 AM 57.2 °F 53.6 °F 88% 30.07 in 10.0 mi East 9.2 mph 18.4 mph N/A   Overcast
6:15 AM 59.0 °F 53.6 °F 82% 30.08 in 10.0 mi ENE 9.2 mph 19.6 mph N/A   Overcast
6:35 AM 59.0 °F 53.6 °F 82% 30.08 in 7.0 mi East 9.2 mph - N/A   Overcast
6:55 AM 59.0 °F 51.8 °F 77% 30.09 in 10.0 mi East 8.1 mph - N/A   Overcast
7:15 AM 59.0 °F 51.8 °F 77% 30.09 in 10.0 mi East 10.4 mph 17.3 mph N/A   Overcast
7:35 AM 59.0 °F 51.8 °F 77% 30.09 in 10.0 mi ENE 9.2 mph - N/A   Overcast
7:55 AM 59.0 °F 51.8 °F 77% 30.09 in 10.0 mi East 9.2 mph 17.3 mph N/A   Overcast
8:15 AM 59.0 °F 51.8 °F 77% 30.10 in 10.0 mi East 8.1 mph 17.3 mph N/A   Overcast
8:35 AM 59.0 °F 51.8 °F 77% 30.09 in 7.0 mi East 11.5 mph 20.7 mph N/A   Overcast
8:55 AM 59.0 °F 50.0 °F 72% 30.09 in 10.0 mi East 11.5 mph 18.4 mph N/A   Overcast
9:15 AM 59.0 °F 50.0 °F 72% 30.09 in 10.0 mi East 12.7 mph 21.9 mph N/A   Overcast
9:35 AM 59.0 °F 48.2 °F 67% 30.09 in 10.0 mi East 9.2 mph 24.2 mph N/A   Mostly Cloudy
10:15 AM 60.8 °F 46.4 °F 59% 30.09 in 10.0 mi East 11.5 mph 17.3 mph N/A   Mostly Cloudy
10:35 AM 60.8 °F 44.6 °F 55% 30.09 in 10.0 mi ENE 15.0 mph 26.5 mph N/A   Mostly Cloudy
10:55 AM 62.6 °F 44.6 °F 52% 30.09 in 10.0 mi East 11.5 mph 23.0 mph N/A   Scattered Clouds
11:15 AM 62.6 °F 44.6 °F 52% 30.09 in 10.0 mi East 15.0 mph 21.9 mph N/A   Clear
11:35 AM 62.6 °F 44.6 °F 52% 30.09 in 10.0 mi ENE 16.1 mph 20.7 mph N/A   Scattered Clouds
12:15 PM 62.6 °F 44.6 °F 52% 30.09 in 10.0 mi East 10.4 mph 20.7 mph N/A Rain Light Rain
12:35 PM 62.6 °F 44.6 °F 52% 30.08 in 10.0 mi ENE 15.0 mph 20.7 mph N/A   Overcast
12:55 PM 60.8 °F 46.4 °F 59% 30.08 in 10.0 mi East 12.7 mph 23.0 mph N/A   Overcast
1:35 PM 59.0 °F 50.0 °F 72% 30.07 in 4.0 mi East 8.1 mph 20.7 mph N/A   Haze
1:55 PM 60.8 °F 51.8 °F 72% 30.07 in 4.0 mi East 9.2 mph 17.3 mph N/A   Haze
2:15 PM 60.8 °F 50.0 °F 68% 30.06 in 10.0 mi ENE 9.2 mph 24.2 mph N/A   Overcast
2:35 PM 60.8 °F 50.0 °F 68% 30.05 in 10.0 mi East 11.5 mph 20.7 mph N/A   Overcast
2:55 PM 60.8 °F 51.8 °F 72% 30.05 in 7.0 mi ENE 13.8 mph 20.7 mph N/A   Overcast
3:15 PM 60.8 °F 51.8 °F 72% 30.05 in 10.0 mi East 10.4 mph 20.7 mph N/A   Overcast
3:35 PM 59.0 °F 51.8 °F 77% 30.05 in 10.0 mi East 12.7 mph 21.9 mph N/A   Overcast
3:55 PM 60.8 °F 50.0 °F 68% 30.04 in 10.0 mi East 13.8 mph 23.0 mph N/A   Overcast
4:15 PM 60.8 °F 51.8 °F 72% 30.03 in 10.0 mi East 11.5 mph 23.0 mph N/A   Overcast
4:35 PM 60.8 °F 51.8 °F 72% 30.03 in 10.0 mi East 10.4 mph 18.4 mph N/A   Overcast
4:55 PM 60.8 °F 51.8 °F 72% 30.03 in 10.0 mi East 11.5 mph 21.9 mph N/A   Overcast
5:15 PM 60.8 °F 50.0 °F 68% 30.02 in 10.0 mi East 9.2 mph 21.9 mph N/A   Overcast
5:35 PM 60.8 °F 50.0 °F 68% 30.02 in 10.0 mi East 11.5 mph 20.7 mph N/A   Overcast
5:55 PM 60.8 °F 51.8 °F 72% 30.01 in 7.0 mi ENE 10.4 mph 18.4 mph N/A   Drizzle
6:15 PM 59.0 °F 51.8 °F 77% 30.01 in 7.0 mi East 11.5 mph 18.4 mph N/A Rain Light Rain
6:35 PM 59.0 °F 51.8 °F 77% 30.01 in 7.0 mi East 10.4 mph 19.6 mph N/A Rain Light Rain
6:55 PM 59.0 °F 53.6 °F 82% 30.00 in 10.0 mi East 9.2 mph 18.4 mph N/A   Overcast
7:15 PM 59.0 °F 51.8 °F 77% 30.00 in 10.0 mi East 6.9 mph 16.1 mph N/A   Overcast
7:35 PM 59.0 °F 51.8 °F 77% 30.00 in 10.0 mi ENE 9.2 mph 18.4 mph N/A   Overcast
7:55 PM 59.0 °F 51.8 °F 77% 30.00 in 10.0 mi East 8.1 mph 19.6 mph N/A   Overcast
8:15 PM 59.0 °F 51.8 °F 77% 29.99 in 10.0 mi East 9.2 mph 27.6 mph N/A   Overcast
8:35 PM 59.0 °F 51.8 °F 77% 29.99 in 10.0 mi East 9.2 mph 21.9 mph N/A   Overcast
8:55 PM 59.0 °F 51.8 °F 77% 29.99 in 10.0 mi East 12.7 mph 20.7 mph N/A   Overcast
9:15 PM 59.0 °F 51.8 °F 77% 29.99 in 7.0 mi East 13.8 mph 24.2 mph N/A Rain Light Rain
9:35 PM 59.0 °F 51.8 °F 77% 30.00 in 10.0 mi East 10.4 mph 23.0 mph N/A   Overcast
9:55 PM 59.0 °F 51.8 °F 77% 30.00 in 10.0 mi East 15.0 mph 26.5 mph N/A   Overcast
10:15 PM 59.0 °F 51.8 °F 77% 30.01 in 10.0 mi East 9.2 mph 16.1 mph N/A   Overcast
10:35 PM 59.0 °F 51.8 °F 77% 30.00 in 10.0 mi East 11.5 mph 20.7 mph N/A   Overcast
10:55 PM 60.8 °F 50.0 °F 68% 30.00 in 10.0 mi East 13.8 mph 32.2 mph N/A   Overcast
11:15 PM 59.0 °F 48.2 °F 67% 30.00 in 10.0 mi East 13.8 mph 32.2 mph N/A   Overcast
11:35 PM 59.0 °F 48.2 °F 67% 29.99 in 10.0 mi East 10.4 mph 32.2 mph N/A   Overcast
11:55 PM 59.0 °F 48.2 °F 67% 29.99 in 10.0 mi East 12.7 mph 23.0 mph N/A   Overcast